When you browse on this site, cookies collect data to enhance your experience and personalize the content and advertising you see.
Visit our Privacy Policy to learn more. By continuing to use the site, you agree to this use of cookies and data.
  • In Hungary
  • List of Countries
  • For 7 days
  • Water Temperature
  • Satellite Maps
  • Weather Map
  • News
  • Weather Widgets
  • user-avatar
    Login

    Hourly Weather Santiago Tetla

    Today, 23 February, Saturday

    Time Temperature Precipitation Wind Pressure Humidity
    00:00 +14°C° 0 mm 1 mps 569 mmHg 50%
    01:00 +13°C° 0 mm 1 mps 568 mmHg 53%
    02:00 +13°C° 0 mm 1 mps 568 mmHg 56%
    03:00 +12°C° 0 mm 1 mps 567 mmHg 59%
    04:00 +12°C° 0 mm 1 mps 567 mmHg 61%
    05:00 +11°C° 0 mm 0 mps 567 mmHg 64%
    06:00 +13°C° 0 mm 1 mps 568 mmHg 59%
    07:00 +15°C° 0 mm 1 mps 569 mmHg 53%
    08:00 +16°C° 0 mm 1 mps 571 mmHg 48%
    09:00 +19°C° 0 mm 1 mps 571 mmHg 42%
    10:00 +21°C° 0 mm 1 mps 572 mmHg 36%
    11:00 +22°C° 0 mm 0 mps 573 mmHg 29%
    12:00 +24°C° 0 mm 1 mps 573 mmHg 27%
    13:00 +25°C° 0 mm 1 mps 572 mmHg 25%
    14:00 +25°C° 0 mm 2 mps 572 mmHg 23%
    15:00 +24°C° 0 mm 2 mps 571 mmHg 28%
    16:00 +23°C° 0 mm 2 mps 571 mmHg 33%
    17:00 +20°C° 0 mm 3 mps 570 mmHg 39%
    18:00 +19°C° 0.1 mm 3 mps 571 mmHg 44%
    19:00 +18°C° 0.1 mm 3 mps 571 mmHg 49%
    20:00 +17°C° 0.1 mm 3 mps 571 mmHg 54%
    21:00 +16°C° 0 mm 3 mps 571 mmHg 57%
    22:00 +15°C° 0 mm 2 mps 571 mmHg 61%
    23:00 +14°C° 0 mm 2 mps 571 mmHg 65%

    Tomorrow, 24 February, Sunday

    Time Temperature Precipitation Wind Pressure Humidity
    00:00 +14°C° 0 mm 2 mps 570 mmHg 67%
    01:00 +13°C° 0 mm 2 mps 570 mmHg 70%
    02:00 +13°C° 0 mm 2 mps 570 mmHg 72%
    03:00 +13°C° 0 mm 2 mps 570 mmHg 76%
    04:00 +12°C° 0 mm 2 mps 569 mmHg 79%
    05:00 +12°C° 0 mm 2 mps 569 mmHg 83%
    06:00 +13°C° 0 mm 2 mps 570 mmHg 79%
    07:00 +13°C° 0 mm 3 mps 571 mmHg 75%
    08:00 +13°C° 0 mm 3 mps 572 mmHg 71%
    09:00 +16°C° 0 mm 3 mps 573 mmHg 65%
    10:00 +17°C° 0 mm 3 mps 573 mmHg 59%
    11:00 +19°C° 0 mm 3 mps 574 mmHg 52%
    12:00 +19°C° 0.2 mm 3 mps 573 mmHg 53%
    13:00 +19°C° 0.2 mm 3 mps 573 mmHg 54%
    14:00 +19°C° 0.2 mm 3 mps 572 mmHg 54%
    15:00 +17°C° 0.3 mm 3 mps 571 mmHg 59%
    16:00 +16°C° 0.3 mm 3 mps 571 mmHg 64%
    17:00 +14°C° 0.3 mm 4 mps 570 mmHg 69%
    18:00 +13°C° 0 mm 3 mps 571 mmHg 72%
    19:00 +12°C° 0 mm 3 mps 571 mmHg 76%
    20:00 +12°C° 0 mm 3 mps 571 mmHg 80%
    21:00 +11°C° 0 mm 3 mps 571 mmHg 81%
    22:00 +12°C° 0 mm 2 mps 571 mmHg 82%
    23:00 +12°C° 0 mm 2 mps 571 mmHg 83%

    Day after tomorrow, 25 February, Monday

    Time Temperature Precipitation Wind Pressure Humidity
    00:00 +10°C° 0 mm 2 mps 570 mmHg 84%
    01:00 +10°C° 0 mm 2 mps 570 mmHg 86%
    02:00 +10°C° 0 mm 1 mps 569 mmHg 87%
    03:00 +10°C° 0 mm 1 mps 569 mmHg 88%
    04:00 +10°C° 0 mm 1 mps 569 mmHg 89%
    05:00 +10°C° 0 mm 1 mps 569 mmHg 89%
    06:00 +11°C° 0 mm 1 mps 570 mmHg 82%
    07:00 +13°C° 0 mm 1 mps 571 mmHg 76%
    08:00 +14°C° 0 mm 2 mps 573 mmHg 69%
    09:00 +16°C° 0 mm 1 mps 573 mmHg 60%
    10:00 +19°C° 0 mm 1 mps 574 mmHg 52%
    11:00 +21°C° 0 mm 1 mps 575 mmHg 43%
    12:00 +21°C° 0.2 mm 2 mps 574 mmHg 41%
    13:00 +21°C° 0.2 mm 2 mps 574 mmHg 39%
    14:00 +21°C° 0.2 mm 2 mps 573 mmHg 38%
    15:00 +20°C° 1 mm 2 mps 572 mmHg 42%
    16:00 +19°C° 1 mm 2 mps 572 mmHg 47%
    17:00 +18°C° 1 mm 2 mps 571 mmHg 52%
    18:00 +18°C° 0.7 mm 1 mps 572 mmHg 58%
    19:00 +16°C° 0.7 mm 1 mps 572 mmHg 65%
    20:00 +15°C° 0.7 mm 1 mps 572 mmHg 71%
    21:00 +15°C° 0.9 mm 1 mps 572 mmHg 73%
    22:00 +14°C° 0.9 mm 1 mps 571 mmHg 75%
    23:00 +14°C° 0.9 mm 2 mps 571 mmHg 76%

    26 February, Tuesday

    Time Temperature Precipitation Wind Pressure Humidity
    00:00 +14°C° 0 mm 1 mps 571 mmHg 77%
    01:00 +13°C° 0 mm 1 mps 570 mmHg 77%
    02:00 +12°C° 0 mm 0 mps 570 mmHg 77%
    03:00 +12°C° 0 mm 0 mps 570 mmHg 77%
    04:00 +12°C° 0 mm 1 mps 570 mmHg 78%
    05:00 +12°C° 0 mm 1 mps 569 mmHg 78%
    06:00 +13°C° 0 mm 1 mps 570 mmHg 72%
    07:00 +15°C° 0 mm 1 mps 571 mmHg 65%
    08:00 +16°C° 0 mm 1 mps 572 mmHg 59%
    09:00 +19°C° 0 mm 1 mps 573 mmHg 51%
    10:00 +21°C° 0 mm 1 mps 574 mmHg 44%
    11:00 +23°C° 0 mm 1 mps 574 mmHg 36%
    12:00 +23°C° 0.1 mm 1 mps 574 mmHg 34%
    13:00 +24°C° 0.1 mm 1 mps 573 mmHg 32%
    14:00 +24°C° 0.1 mm 2 mps 573 mmHg 30%
    15:00 +23°C° 0.3 mm 2 mps 572 mmHg 36%
    16:00 +21°C° 0.3 mm 1 mps 572 mmHg 42%
    17:00 +20°C° 0.3 mm 1 mps 571 mmHg 47%
    18:00 +19°C° 0.4 mm 1 mps 571 mmHg 52%
    19:00 +18°C° 0.4 mm 1 mps 571 mmHg 57%
    20:00 +16°C° 0.4 mm 1 mps 571 mmHg 61%
    21:00 +16°C° 0.3 mm 1 mps 571 mmHg 63%
    22:00 +15°C° 0.3 mm 1 mps 571 mmHg 65%
    23:00 +15°C° 0.3 mm 1 mps 571 mmHg 67%

    27 February, Wednesday

    Time Temperature Precipitation Wind Pressure Humidity
    00:00 +14°C° 0.2 mm 1 mps 570 mmHg 68%
    01:00 +14°C° 0.2 mm 1 mps 569 mmHg 68%
    02:00 +14°C° 0.2 mm 1 mps 569 mmHg 69%
    03:00 +13°C° 0 mm 1 mps 569 mmHg 69%
    04:00 +13°C° 0 mm 1 mps 569 mmHg 68%
    05:00 +13°C° 0 mm 1 mps 569 mmHg 68%
    06:00 +14°C° 0 mm 1 mps 570 mmHg 61%
    07:00 +16°C° 0 mm 1 mps 571 mmHg 54%
    08:00 +18°C° 0 mm 1 mps 572 mmHg 47%
    09:00 +19°C° 0 mm 2 mps 572 mmHg 39%
    10:00 +21°C° 0 mm 2 mps 573 mmHg 32%
    11:00 +23°C° 0 mm 2 mps 574 mmHg 24%
    12:00 +24°C° 0 mm 2 mps 573 mmHg 23%
    13:00 +24°C° 0 mm 3 mps 573 mmHg 23%
    14:00 +25°C° 0 mm 3 mps 572 mmHg 22%
    15:00 +24°C° 0 mm 3 mps 572 mmHg 27%
    16:00 +22°C° 0 mm 3 mps 571 mmHg 32%
    17:00 +21°C° 0 mm 3 mps 571 mmHg 37%
    18:00 +20°C° 0 mm 2 mps 571 mmHg 44%
    19:00 +19°C° 0 mm 1 mps 570 mmHg 52%
    20:00 +18°C° 0 mm 1 mps 570 mmHg 59%
    21:00 +16°C° 0 mm 1 mps 570 mmHg 60%
    22:00 +16°C° 0 mm 1 mps 570 mmHg 61%
    23:00 +15°C° 0 mm 1 mps 569 mmHg 61%

    28 February, Thursday

    Time Temperature Precipitation Wind Pressure Humidity
    00:00 +15°C° 0 mm 1 mps 569 mmHg 62%
    01:00 +14°C° 0 mm 1 mps 568 mmHg 63%
    02:00 +14°C° 0 mm 1 mps 568 mmHg 64%
    03:00 +13°C° 0 mm 1 mps 568 mmHg 66%
    04:00 +13°C° 0 mm 1 mps 568 mmHg 69%
    05:00 +12°C° 0 mm 1 mps 567 mmHg 71%
    06:00 +14°C° 0 mm 1 mps 568 mmHg 65%
    07:00 +15°C° 0 mm 1 mps 569 mmHg 59%
    08:00 +18°C° 0 mm 1 mps 570 mmHg 54%
    09:00 +19°C° 0 mm 2 mps 571 mmHg 46%
    10:00 +21°C° 0 mm 2 mps 571 mmHg 38%
    11:00 +23°C° 0 mm 2 mps 572 mmHg 30%
    12:00 +24°C° 0 mm 2 mps 571 mmHg 28%
    13:00 +25°C° 0 mm 2 mps 571 mmHg 26%
    14:00 +26°C° 0 mm 3 mps 570 mmHg 24%
    15:00 +25°C° 0 mm 3 mps 570 mmHg 27%
    16:00 +24°C° 0 mm 3 mps 570 mmHg 31%
    17:00 +22°C° 0 mm 3 mps 569 mmHg 34%
    18:00 +21°C° 0 mm 2 mps 569 mmHg 40%
    19:00 +19°C° 0 mm 2 mps 569 mmHg 46%
    20:00 +17°C° 0 mm 2 mps 569 mmHg 52%
    21:00 +18°C° 0 mm 1 mps 568 mmHg 54%
    22:00 +16°C° 0 mm 1 mps 568 mmHg 57%
    23:00 +16°C° 0 mm 1 mps 568 mmHg 59%
    Show more